Regional Weather Roundup
Issued by NWS

Home | Current Version | Previous Version | Graphics & Text | Print | Product List | Glossary On
Versions: 1 2 3 4 5 6 7 8 9 10 11 12 13 14 15 16 17 18 19 20 21 22 23 24 25 26 27 28 29 30 31 32 33 34 35 36 37 38 39 40 41 42 43 44 45 46 47 48 49 50
000
ASUS43 KTOP 211908
RWRKS

WEATHER ROUNDUP FOR KANSAS
NATIONAL WEATHER SERVICE GOODLAND KS
200 PM CDT TUE OCT 21 2014

NOTE:  "FAIR" INDICATES FEW OR NO CLOUDS BELOW 12,000 FEET WITH NO
SIGNIFICANT WEATHER AND/OR OBSTRUCTIONS TO VISIBILITY.

KSZ001>006-013>018-027>032-041>047-212000-
NORTHWEST KANSAS

CITY           SKY/WX    TMP DP  RH WIND       PRES   REMARKS
GOODLAND       SUNNY     73  54  51 S20       30.00F
HAYS           SUNNY     75  59  57 S17       30.03F
HILL CITY      SUNNY     77  58  51 MISG      30.02F
RUSSELL        SUNNY     75  60  59 SE12G22   30.02F
$$

KSZ061>065-074>080-084>089-212000-
SOUTHWEST KANSAS

CITY           SKY/WX    TMP DP  RH WIND       PRES   REMARKS
DODGE CITY     SUNNY     77  55  46 S10       30.04F
ELKHART          N/A     76  49  38 S15         N/A
GARDEN CITY    SUNNY     76  54  46 S13       30.03F
GREAT BEND     SUNNY     77  59  53 S15G21    30.03F
LIBERAL        PTSUNNY   79  52  38 SW15      30.06F
PRATT          SUNNY     79  54  41 S13G18    30.05F
$$

KSZ066>073-081>083-090>101-212000-
SOUTHEAST KANSAS

CITY           SKY/WX    TMP DP  RH WIND       PRES   REMARKS
CHANUTE        SUNNY     74  56  53 SE8       30.09F
COFFEYVILLE    SUNNY     76  55  48 S7        30.08F
HUTCHINSON     SUNNY     78  56  46 SE16      30.05F
MEDICINE LODGE   N/A     80  58  46 S10       30.03F
NEWTON         SUNNY     77  54  44 SE14      30.09F
PARSONS        SUNNY     76  56  49 SE5       30.10F
WICHITA INTL   MOSUNNY   79  56  45 SE9       30.05F
WICHITA JABRA  SUNNY     78  56  46 SE10      30.06F
WICHITA MCCONL SUNNY     78  56  46 SE10      30.06F
WINFIELD       SUNNY     77  60  55 SE8       30.07F
$$

KSZ007>012-019>026-033>040-048>060-102>105-212000-
NORTHEAST KANSAS

CITY           SKY/WX    TMP DP  RH WIND       PRES   REMARKS
CONCORDIA      SUNNY     75  52  44 S10       30.05F
EMPORIA        SUNNY     74  50  42 S9        30.08F
LAWRENCE       SUNNY     72  41  32 VRB3      30.09F
MANHATTAN      SUNNY     77  45  32 SE6       30.06F
MARYSVILLE     SUNNY     73  45  35 S6        30.07F
OLATHE IND     SUNNY     73  46  38 SE8       30.10F
OLATHE EXE     SUNNY     72  46  39 CALM      30.09F
SALINA         SUNNY     78  53  41 SE14      30.05F
TOPEKA BILLARD SUNNY     75  42  30 VRB3      30.09F
TOPEKA FORBES  SUNNY     75  43  31 S8        30.09F
$$



USA.gov is the U.S. government's official web portal to all federal, state and local government web resources and services.